1st Responders/1st Detectors/Storm Spotters Weather Summary for Powell County, KY

Forecast Maps


Reg. NEXRAD Animation


National Fire Danger: Day 1 & 2 Map

Current NWS Watch/Warnings

SPC Convective Day 1 Outlook


Day 2 Outlook

(Click images to enlarge|Page will refresh every 5 minutes)
UK Ag. Weather Center Desktop Severe Weather Service[HERE]
Powell County, KY Hazardous Weather Outlook Webcast
(9 AM to 9 PM Mon-Fri)
[Fast]
[Dial-up]


UKAWC 1st Detectors/1st Responders Precision Weather Forecast For POWELL County, Kentucky
(based on the NWS County Digital Forecast)

ISSUED AT 18:00 UTC ON SATURDAY JUL 20 2019
DAY SATURDAY
EDT 3HR 3P 4P 5P 6P 7P
MAX/MIN -- -- -- -- 92°
TEMP 90° 92° 92° 92° 88°
SKY COVER 37% 29% 21% 20% 19%
Clouds
DEW PT 74° 74° 74° 74° 74°
RH 60% 57% 55% 57% 63%
POP 12HR -- -- -- -- --
RAIN/SNOW (liq.equ) -- -- -- -- --
SNOWFALL -- -- -- -- --
WIND SPEED(MPH) 5 5 2 2 2
WIND Gust(MPH) 7 7 7 7 5
WIND DIR SW SW SW SW SW
DEW -- -- -- -- --
HeatIndex 101 103 104 103 99
Rain Showers -- -- -- -- --
Thunder Storm -- -- -- -- --
Fog -- -- -- -- --
WIND CHILL -- -- -- -- --
SPRAY COND
DRY COND
LIVESTOCK HEATSTRESS 83.14 84.15 83.78 84.15 82.06



DAY SUNDAY MONDAY TUESDAY WEDNESDAY THURSDAY FRIDAY
EDT 6HR 8P 9P 10P 11P MIDN 1A 2A 3A 4A 5A 6A 7A 8A 9A 10A 11A NOON 1P 2P 3P 4P 5P 6P 7P 8P 9P 10P 11P MIDN 1A 2A 5A 8A 11A 2P 5P 8P 2A 8A 2P 8P 2A 8A 2P 8P 2A 8A 2P 8P 2A 8A 2P 8P
MAX/MIN -- -- -- -- -- -- -- -- -- -- -- -- 72° -- -- -- -- -- -- -- -- -- -- 90° -- -- -- -- -- -- -- -- 70° -- -- 83° -- -- 61° 79° -- -- 56° 81° -- -- 56° 85° -- -- 59° 88° --
TEMP 85° 83° 81° 77° 76° 76° 76° 76° 74° 74° 74° 74° 76° 79° 81° 85° 86° 88° 88° 88° 88° 86° 85° 85° 85° 81° 79° 76° 74° 74° 74° 70° 74° 79° 83° 81° 74° 65° 63° 77° 72° 58° 58° 79° 74° 58° 61° 83° 76° 63° 63° 86° 81°
SKY COVER 18% 14% 10% 6% 10% 13% 17% 27% 37% 47% 56% 65% 74% 72% 70% 68% 65% 62% 59% 61% 63% 66% 68% 71% 74% 75% 76% 77% 78% 79% 80% 83% 81% 87% 84% 86% 88% 79% 61% 34% 14% 6% 6% 12% 4% 3% 3% 11% 7% 8% 9% 22% 14%
Clouds
DEW PT 74° 74° 74° 74° 74° 72° 72° 72° 72° 72° 72° 72° 74° 74° 76° 76° 76° 76° 76° 76° 74° 74° 74° 74° 74° 74° 72° 72° 72° 72° 72° 70° 72° 74° 74° 72° 70° 65° 61° 61° 58° 56° 56° 58° 59° 56° 58° 61° 63° 59° 59° 63° 63°
RH 70% 74% 82% 87% 90% 87% 90% 90% 93% 93% 93% 96% 90% 87% 82% 74% 69% 66% 65% 65% 65% 64% 67% 67% 69% 76% 82% 87% 93% 93% 93% 99% 97% 84% 74% 74% 84% 99% 96% 55% 59% 93% 89% 48% 59% 92% 90% 46% 61% 90% 89% 44% 56%
POP 12HR 8% -- -- -- -- -- -- -- -- -- -- -- 16% -- -- -- -- -- -- -- -- -- -- -- 52% -- -- -- -- -- -- -- 56% -- -- -- 76% -- 48% -- 5% -- 3% -- 2% -- 1% -- 3% -- 2% -- 3%
RAIN/SNOW (liq.equ) 0.00in -- -- -- -- -- 0.00in -- -- -- -- -- 0.01in -- -- -- -- -- 0.06in -- -- -- -- -- 0.17in -- -- -- -- -- 0.06in -- 0.09in -- 0.46in -- 0.69in 0.38in 0.00in -- -- -- -- -- -- -- -- -- -- -- -- -- --
SNOWFALL 0in -- -- -- -- -- 0in -- -- -- -- -- 0in -- -- -- -- -- 0in -- -- -- -- -- 0in -- -- -- -- -- 0in -- 0in -- 0in -- 0in 0in 0in -- -- -- -- -- -- -- -- -- -- -- -- -- --
WIND SPEED(MPH) 1 1 1 1 1 1 1 1 1 1 1 2 2 2 5 5 6 6 7 6 6 5 5 2 1 1 1 1 1 1 1 2 5 6 7 7 5 2 2 6 2 1 0 5 1 0 0 1 1 0 0 1 1
WIND DIR SW SW SW SW SW SW SW SW SW SW SW SW SW SW SW SW SW SW SW SW SW SW SW SW SW SW SW SW SW SW SW SW SW W W W W N N NE N NE NE NE N E N E E E E E S
HeatIndex 95 92 86 77 76 76 76 76 74 74 74 74 76 79 89 94 97 100 100 100 97 95 94 94 92 88 79 76 74 74 74 70 74 84 92 87 74 65 63 77 72 58 58 80 74 58 61 84 76 63 63 87 82
Rain Showers -- -- -- -- -- -- -- -- -- -- -- Slight Chance Slight Chance Chance Chance Chance Chance Chance Chance Chance Chance Chance Chance Chance Chance Chance Likely Likely Likely Likely Likely Likely Likely Likely Definite Definite Chance Slight Chance -- -- -- -- -- -- -- -- -- -- -- -- -- -- --
Thunder Storm -- -- -- -- -- -- -- -- -- -- -- Slight Chance Slight Chance Chance Chance Chance Chance Chance Chance Chance Chance Chance Chance Chance Chance Chance Chance Chance Chance Chance Slight Chance Slight Chance Slight Chance Slight Chance Chance Chance Slight Chance -- -- -- -- -- -- -- -- -- -- -- -- -- -- -- --
Fog -- -- -- -- -- -- -- -- Patchy Patchy Patchy Slight Chance Slight Chance -- -- -- -- -- -- -- -- -- -- -- -- -- -- -- -- -- -- -- -- -- -- -- -- -- -- -- -- -- -- -- -- -- -- -- -- -- -- -- --
WIND CHILL -- -- -- -- -- -- -- -- -- -- -- -- -- -- -- -- -- -- -- -- -- -- -- -- -- -- -- -- -- -- -- -- -- -- -- -- -- -- -- -- -- -- -- -- -- -- -- -- -- -- -- -- --
SPRAY COND
DRY COND
LIVESTOCK HEATSTRESS 80.68 79.54 78.80 75.70 75.05 74.77 75.05 75.05 73.41 73.41 73.41 73.67 75.05 77.56 78.80 81.25 81.36 82.54 82.38 82.38 82.38 80.61 80.24 80.24 80.53 78.07 77.00 74.77 73.41 73.41 73.41 69.94 73.75 77.22 79.54 77.83 72.66 64.97 62.91 72.50 69.02 58.03 58.05 73.22 70.57 58.04 60.88 75.81 72.31 62.77 62.75 77.62 75.63

Click on individual weather variable above in left-hand column (ie., TEMP, RH, QPF 12HR) to view state forecast maps






NWS 48 Hr. Forecast Maps,

Regional Hourly Observations For POWELL County, Kentucky
Issued at 200 PM EDT SAT JUL 20 2019
NORTHEAST KENTUCKY
  
CITY           SKY/WX    TMP DP  RH WIND       PRES   REMARKS
LEXINGTON      FAIR      92  72  51 SW9       30.02F HX  99           
COVINGTON      FAIR      91  72  53 S21       29.97F HX  98           
FRANKFORT      FAIR      92  74  55 SW9       29.99F HX 101           


Current NOWCAST not available:
Nowcasts are not issued routinely during fair weather. Only when
precipitation or other significant weather is occuring in this county will these
forecasts be issued. Currently, there is no short term forecast in effect.


Fire Weather Forecast For POWELL County, KY
Provided by the National Weather Service:

Issued at: Sat Jul 20 14:05:01 EDT 2019

543 AM EDT Sat Jul 20 2019

                      Today        Tonight      Sun          

Cloud Cover           PCldy        PCldy        PCldy        
Chance precip (%)     0            0            50           
Precip type           None         None         tstms        
Temp (24H TREND)      91-92 (+2)   70-75 (+3)   87-88        
Rh % (24H TREND)      51-54 (-5)   90-100 (+1)  60-65        
20ftwnd-AM(mph)       Lgt/Var                   SW 2-6       
20ftwnd-PM(mph)       SW 2-6       Lgt/Var      SW 3-7 G13   
Precip duration                                 1            
Precip begin                                                 
Precip end                                                   
Precip amount         0.00         0.00         0.22         
LAL                   1            2            4            
Haines Index (MID)    3                         3            
Mixing hgt(ft-AGL)    5200                      4800         
Transport wnd (mph)   SW  9                     SW 12        
Vent rate (kt-ft)     39229                     49532        
ADI Early             28 Fair      5 Very Poor  29 Fair      
ADI Late              61 Good      4 Very Poor  41 Gen Good  
Max LVORI Early       6            6            6            
Max LVORI Late        3            8            3            

REMARKS...RANGES OF MIN T EXCEEDING 8 DEGREES & RANGES OF MAX RH        
EXCEEDING 10% INDICATE THE LIKELIHOOD OF THERMAL BELTS. ADI IS        
ATMOSPHERIC DISPERSION INDEX BY LAVDAS. DISPERSION INDEX IS        
MAGNITUDE OF VENT RATE DIVIDED BY 1000.


SPC's Fire Weather Web Tool (Excellent!), SPC's Fire Weather Outlooks, NWS Fire Weather WEB, Fire Danger Class Map,
Keetch-Byram Drought Index, ROMAN Web, Haines Index ,
WFAS's 10-hr Dead Fuel Moist., WFAS's 100-hr Dead Fuel Moist., Probablity of Ignition, Visual blackness Map, Palmer Drought Index, HPC's Rainfall Forecast Maps


Hazardous Weather Outlook For POWELL County, Kentucky
352 AM EDT Sat Jul 20 2019

   HEAT ADVISORY IN EFFECT UNTIL 8 PM EDT THIS EVENING  

This hazardous weather outlook is for portions of eastern Kentucky.

 DAY ONE  Today and Tonight.

Hot temperatures and high humidity will combine to yield heat 
indices of between 100 and 105 degrees in most areas through early
evening. See the latest SDFNPWJKL for more details concerning the
Heat Advisory in effect for this area.

Thunderstorms are possible along the TN and VA border this
afternoon and over all of eastern Kentucky late tonight.

 DAYS TWO THROUGH SEVEN  Sunday through Friday.

Thunderstorms will be possible at times for Sunday through 
Monday night. Some storms on Monday could be strong as a cold
front will push through the region. The main threats will be wind
gusts and heavy rainfall that may lead to isolated flooding.

 SPOTTER INFORMATION STATEMENT  

Spotter activation is not anticipated at this time.

Latest POWELL County, Kentucky Watches, Warnings and Advisories.
Additional Drought Info.: UKAWC Drought Page, Kentucky Drought Watch


7-Day Forecast For POWELL County, KY


HEAT ADVISORY IN EFFECT UNTIL 8 PM EDT THIS EVENING

TODAY
Mostly sunny. Highs in the lower 90s. Light winds.

TONIGHT
Partly cloudy. Patchy valley fog late. A 20 percent chance of showers and thunderstorms near dawn. Lows in the lower 70s. Light winds.

SUNDAY
Partly sunny with a 50 percent chance of showers and thunderstorms. Highs around 90. Light winds.

SUNDAY NIGHT
Mostly cloudy. Showers likely and a chance of thunderstorms in the evening, then showers likely and a slight chance of thunderstorms late. Lows in the lower 70s. Light winds. Chance of rain 60 percent.

MONDAY
Showers and a chance of thunderstorms. Highs in the lower 80s. Light winds. Chance of rain 80 percent.

MONDAY NIGHT
Mostly cloudy with a 50 percent chance of showers and thunderstorms. Lows in the lower 60s.

TUESDAY
Mostly sunny. Highs in the upper 70s.

TUESDAY NIGHT
Mostly clear. Lows in the mid 50s.

WEDNESDAY
Sunny. Highs in the lower 80s.

WEDNESDAY NIGHT
Clear. Lows in the upper 50s.

THURSDAY
Sunny. Highs in the mid 80s.

THURSDAY NIGHT
Mostly clear. Lows in the lower 60s.

FRIDAY
Sunny. Highs in the upper 80s.

Ag Weather Center, Department of Biosystems & Agricultural Engineering, University of Kentucky